Regional Weather Roundup
Issued by NWS

Home | Current Version | Previous Version | Graphics & Text | Print | Product List | Glossary On
Versions: 1 2 3 4 5 6 7 8 9 10 11 12 13 14 15 16 17 18 19 20 21 22 23 24 25 26 27 28 29 30 31 32 33 34 35 36 37 38 39 40 41 42 43 44 45 46 47 48 49 50
276
ASUS43 KMKX 261721
RWRWI

WISCONSIN REGIONAL WEATHER ROUNDUP
NATIONAL WEATHER SERVICE MILWAUKEE/SULLIVAN WI
1200 PM CDT WED JUL 26 2017

NOTE: "FAIR" INDICATES FEW OR NO CLOUDS BELOW 12,000 FEET WITH NO
SIGNIFICANT WEATHER AND/OR OBSTRUCTIONS TO VISIBILITY.

WIZ001-002-006>008-014>016-023>028-261800-
NORTHWEST WISCONSIN

CITY           SKY/WX    TMP DP  RH WIND       PRES   REMARKS
SUPERIOR ARPT  NOT AVBL
ASHLAND          N/A     78  63  59 W6        29.98S HX  80
HAYWARD        CLOUDY    74  64  71 W5        30.02S
SIREN          CLOUDY    75  65  71 NW3       30.02S
CUMBERLAND     CLOUDY    72  63  73 NW7       30.02S
RICE LAKE      CLOUDY    74  69  87 NW7       30.03S
CHETEK           N/A     72  71  95 CALM      30.01F
LADYSMITH      LGT RAIN  72  70  95 W3        30.03S
EAU CLAIRE     LGT RAIN  72  70  93 SW7       30.01S
MENOMONIE      DRIZZLE   72  71  95 NW5       30.02R
NEW RICHMOND   CLOUDY    73  72  94 SW3       30.02S
OSCEOLA        CLOUDY    75  74  97 NW6       30.04S
$$

WIZ003>005-009-010-017-018-261800-
NORTH CENTRAL WISCONSIN

CITY           SKY/WX    TMP DP  RH WIND       PRES   REMARKS
MANITOWISH WTR CLOUDY    74  65  74 W7        30.00S
ARBOR VITAE    CLOUDY    72  69  91 W7        30.00R
WOODRUFF       CLOUDY    72  69  91 W7        30.00R
RHINELANDER    CLOUDY    70  69  97 W9        30.01R
EAGLE RIVER    CLOUDY    72  69  92 W8        29.99R
LAND O LAKES   PTSUNNY   75  66  72 CALM      30.00S
PHILLIPS       CLOUDY    72  69  93 W3        30.01F
TOMAHAWK       LGT RAIN  69  67  94 W5        30.03R
MEDFORD        CLOUDY    70  67  92 NW8       29.99F
MERRILL        NOT AVBL
$$

WIZ029-030-035-036-043>047-261800-
CENTRAL WISCONSIN

CITY           SKY/WX    TMP DP  RH WIND       PRES   REMARKS
WAUSAU         LGT RAIN  71  68  90 SW7       29.99F
MOSINEE        LGT RAIN  72  70  94 W3        30.02F
MARSHFIELD     MOSUNNY   72  68  87 SW7       30.02R
STEVENS POINT  CLOUDY    72  70  93 SW7       30.02S
WAUPACA        CLOUDY    75  71  87 S6        30.01S
WAUTOMA        CLOUDY    78  71  79 SW6       30.02S HX  80
WISC RAPIDS    CLOUDY    76  71  85 SW5       30.02S
CAMP DOUGLAS   CLOUDY    79  72  78 SW3       30.01R HX  82
$$

WIZ011>013-019>022-031-037>040-048>050-261800-
NORTHEAST WISCONSIN

CITY           SKY/WX    TMP DP  RH WIND       PRES   REMARKS
ANTIGO         LGT RAIN  70  69  98 W8        30.01S
SHAWANO        CLOUDY    74  69  86 SW7       29.98F
OCONTO         CLOUDY    69  68  95 SW8       29.98R
STURGEON BAY     N/A     70  68  93 SW6       29.97F
GREEN BAY      CLOUDY    71  70  96 SW8       30.00F
MANITOWOC      CLOUDY    72  68  87 SW9       30.02F
APPLETON       PTSUNNY   73  68  83 SW9       30.00F
CLINTONVILLE   CLOUDY   N/A N/A N/A SW9       30.00F
OSHKOSH        CLOUDY    76  69  79 SW6       30.01F
$$

WIZ032>034-041-042-053>061-261800-
SOUTHWEST WISCONSIN

CITY           SKY/WX    TMP DP  RH WIND       PRES   REMARKS
LA CROSSE      LGT RAIN  79  71  76 VRB6      30.00S HX  82
SPARTA         PTSUNNY   77  69  75 SW6       30.02R
VIROQUA        CLOUDY    76  72  85 CALM      30.04S
BOSCOBEL       CLOUDY    80  70  71 S3        30.02F HX  83
PRAIRIE DU CHI CLOUDY    77  68  74 SE5       30.02F
PLATTEVILLE    CLOUDY    76  74  93 CALM      30.05S
$$

WIZ056-057-062-063-064-067-068-261800-
SOUTH CENTRAL WISCONSIN

CITY           SKY/WX    TMP DP  RH WIND       PRES   REMARKS
REEDSBURG      CLOUDY    77  73  88 SW6       30.02F
BARABOO/DELLS  CLOUDY    79  68  69 SW8       30.03S HX  81
LONE ROCK      CLOUDY    79  72  79 SW6       30.02F HX  82
MINERAL POINT  CLOUDY    77  73  88 CALM      30.06S
MADISON        CLOUDY    77  70  79 S5        30.04F
MIDDLETON      CLOUDY    78  70  77 SW6       30.06S HX  80
WATERTOWN      CLOUDY    77  72  84 W10       30.05F
MONROE         CLOUDY    77  70  78 SW9       30.06S
JANESVILLE     CLOUDY    82  72  69 SW8       30.04S HX  87
$$

WIZ051-052-058>065-066-070>072-261800-
SOUTHEAST WISCONSIN

CITY           SKY/WX    TMP DP  RH WIND       PRES   REMARKS
MILWAUKEE      CLOUDY    81  69  67 SW12      30.04S HX  84
WAUKESHA       SUNNY     75  66  73 SW9       30.06S
MILWAUKEE/TIMM MOSUNNY   79  66  65 SW12G18   30.04F HX  81
RACINE         PTSUNNY   81  71  71 W10       30.06S HX  85
KENOSHA        PTSUNNY   82  71  69 SW9       30.05F HX  86
FOND DU LAC    CLOUDY    75  66  73 SW8       30.03F
SHEBOYGAN      CLOUDY    75  70  84 CALM      30.03F
WEST BEND      CLOUDY    77  70  78 W10       30.05S
JUNEAU         CLOUDY    75  69  82 S7        30.05F
$$

LSZ147-162-261800-
LAKE SUPERIOR

STATION/POSITION TIME  TEMP    WIND        PRES    WAVE
                       AIR SEA DIR/SP/G            HT/PER
                 (UTC) (F)     (DEG/KT/KT) (MB)    (FT/S)
W MID LAKE BUOY  1650   57 51  260/  8/  8 1013.9S   0
DEVILS ISLAND    1700   65     240/ 12/ 14 1014.7F
SAXON HARBOR     1630   73      CALM  /  2 1014.9S
$$

LMZ867-665-643>646-261800-
LAKE MICHIGAN

STATION/POSITION TIME  TEMP    WIND        PRES    WAVE
                       AIR SEA DIR/SP/G            HT/PER
                 (UTC) (F)     (DEG/KT/KT) (MB)    (FT/S)
CHAMBERS ISLAND  1640   69     120/  4/  7 1013.2F
S GREEN BAY BUOY 1700   70 71  210/ 16/ 17 1014.6
N MID LAKE BUOY  1550   67 65  210/ 17/ 19 1015.6R   5/ 6
NORTHPORT PIER   1640   69     200/  3/  7 1014.9F
KEWAUNEE LAKESHO 1654   71     210/  5/  7 1014.8R
SHEBOYGAN LAKESH 1700   70     160/  8/  9 1016.2F
PORT WASHINGTON  1630   81     250/  7/ 12 1017.9S
ATWATER BUOY     1609   77 69  220/ 10/ 12 1017.6R
MILWAUKEE LAKESH 1700   79     250/ 10/ 13   N/A
S MID LAKE BUOY  1650   71 70  190/ 14/ 16 1017.2F   3/ 5
KENOSHA   LAKESH 1700   73     160/ 13/ 14 1016.6
$$

TC  - TEMPERATURE IN CELSIUS
VSB - VISIBILITY IN STATUTE MILES
WCI - WIND CHILL INDEX
HX  - HEAT INDEX





USA.gov is the U.S. government's official web portal to all federal, state and local government web resources and services.